Location: Dittelspoint
(48.7198°N, 10.7214°E)
Time: 13:56:02
(UTC+00:00)

Cosmos 962 Rocket - Visible Passes

Search period start: 06 August 2020 00:00
Search period end: 16 August 2020 00:00
Orbit: 950 x 999 km, 82.9° (Epoch: 05 August)

Date Brightness Start Highest point End Pass type
(mag) Time Alt. Az. Time Alt. Az. Time Alt. Az.
06 Aug 6.3 19:51:22 10° SW 19:57:06 35° WNW 20:02:50 10° N visible
07 Aug 7.1 20:18:02 10° WSW 20:22:48 22° WNW 20:27:34 10° NNW visible
08 Aug 7.5 20:45:46 10° W 20:48:43 13° NW 20:51:40 10° NNW visible
09 Aug 6.1 19:21:36 10° SW 19:27:30 40° WNW 19:33:23 10° N visible
10 Aug 7.0 19:48:05 10° WSW 19:53:09 25° WNW 19:58:14 10° N visible
11 Aug 8.0 03:09:22 10° NNE 03:12:02 13° NE 03:14:41 10° E visible
11 Aug 7.5 20:15:27 10° W 20:19:01 15° WNW 20:22:34 10° NNW visible
13 Aug 6.9 19:18:12 10° SW 19:23:31 28° WNW 19:28:50 10° N visible
14 Aug 8.1 02:40:40 10° NE 02:42:17 11° NE 02:43:54 10° ENE visible
14 Aug 7.5 19:45:16 10° W 19:49:19 17° WNW 19:53:22 10° NNW visible
15 Aug 7.5 03:04:06 10° NNE 03:08:16 18° ENE 03:12:24 10° ESE visible
15 Aug 8.1 20:14:22 10° WNW 20:15:20 10° NW 20:16:18 10° NW visible
